Location: Unspecified
(28.1530°N, 80.6520°W)
Time: 05:34:12
(UTC+02:00)

Hubble Space Telescope - Visible Passes

Search period start: 26 September 2017 00:00
Search period end: 06 October 2017 00:00
Orbit: 538 x 541 km, 28.5° (Epoch: 25 September)

Date Brightness Start Highest point End Pass type
(mag) Time Alt. Az. Time Alt. Az. Time Alt. Az.
28 Sep 3.5 11:26:13 10° SSE 11:27:07 11° SSE 11:28:01 10° SE visible
29 Sep 3.2 11:16:54 14° SSE 11:16:54 14° SSE 11:19:07 10° ESE visible
30 Sep 3.1 11:07:36 17° SE 11:07:36 17° SE 11:09:32 10° ESE visible
30 Sep 1.3 12:43:29 10° WSW 12:47:33 55° SSE 12:51:36 10° E visible
01 Oct 3.3 10:58:15 17° ESE 10:58:15 17° ESE 10:59:44 10° ESE visible
01 Oct 1.0 12:33:37 12° WSW 12:37:22 65° SSE 12:41:30 10° E visible
02 Oct 3.5 10:48:50 15° ESE 10:48:50 15° ESE 10:49:50 10° E visible
02 Oct 0.8 12:24:13 18° WSW 12:27:14 75° S 12:31:23 10° E visible
03 Oct 3.9 10:39:23 13° E 10:39:23 13° E 10:39:50 10° E visible
03 Oct 0.7 12:14:45 25° WSW 12:17:05 83° S 12:21:15 10° E visible
04 Oct 0.7 12:05:16 35° W 12:06:57 90° SSE 12:11:07 10° E visible
05 Oct 0.7 11:55:45 49° W 11:56:50 86° N 12:00:59 10° E visible
